Weather History for Bartlesville, OK

Change the Weather History Date:

Monday, June 9, 2014

  Actual Average Record
Temperature  
Mean Temperature 70 °F -  
Max Temperature 80 °F 87 °F 98 °F (1977)
Min Temperature 62 °F 64 °F 51 °F (1978)
Cooling Degree Days 6    
Growing Degree Days 20 (Base 50)    
Moisture  
Dew Point 64 °F    
Average Humidity 88    
Maximum Humidity 100    
Minimum Humidity 55    
Precipitation  
Precipitation 0.07 in - - ()
Sea Level Pressure  
Sea Level Pressure 29.73 in    
Wind  
Wind Speed 7 mph (ESE)    
Max Wind Speed 12 mph    
Max Gust Speed 16 mph    
Visibility 7 miles    
Events Rain , Thunderstorm    
Averages and records for this station are not official NWS values.
T = Trace of Precipitation, MM = Missing Value Source: NWS Daily Summary

Daily Weather History Graph

Daily Weather History Graph

Search for Another Location

Airport:

Trip Planner

Search our weather history database for the weather conditions in past years. The results will help you decide how hot, cold, wet, or windy it might be!

Date:

Astronomy

Jun. 09, 2014 Rise Set
Actual Time 6:04 AM CDT 8:42 PM CDT
Civil Twilight 5:34 AM CDT 9:12 PM CDT
Nautical Twilight 4:56 AM CDT 9:50 PM CDT
Astronomical Twilight 4:14 AM CDT 10:33 PM CDT
Moon 5:08 PM CDT (6/9) 3:27 AM CDT (6/9)
Length of Visible Light 15h 38m
Length of Day
14h 37m
Waxing Gibbous, 85% of the Moon is Illuminated
Jun 9
Waxing Gibbous
Jun 12
Full
Jun 19
Last Quarter
Jun 27
New
Jul 5
First Quarter

Hourly Weather History & Observations

Time (CDT) Temp. Dew Point Humidity Pressure Visibility Wind Dir Wind Speed Gust Speed Precip Events Conditions
12:21 AM 66.9 °F 61.0 °F 81% 29.90 in 10.0 mi East 8.1 mph - N/A   Overcast
12:53 AM 66.9 °F 61.0 °F 81% 29.87 in 10.0 mi East 6.9 mph - N/A   Overcast
1:53 AM 66.0 °F 62.1 °F 87% 29.84 in 10.0 mi East 6.9 mph - N/A   Overcast
2:53 AM 64.9 °F 63.0 °F 93% 29.81 in 6.0 mi ENE 6.9 mph - N/A   Overcast
3:12 AM 64.9 °F 63.0 °F 93% 29.83 in 8.0 mi ENE 4.6 mph - N/A   Overcast
3:29 AM 64.9 °F 64.0 °F 97% 29.83 in 5.0 mi ENE 5.8 mph - N/A   Overcast
3:53 AM 64.9 °F 64.0 °F 97% 29.79 in 9.0 mi ENE 5.8 mph - N/A   Overcast
4:53 AM 64.9 °F 64.0 °F 97% 29.77 in 10.0 mi East 5.8 mph - N/A   Overcast
5:20 AM 64.9 °F 64.0 °F 97% 29.79 in 2.5 mi East 5.8 mph - 0.00 in Rain Light Rain
5:34 AM 64.9 °F 64.0 °F 97% 29.78 in 3.0 mi East 8.1 mph - 0.00 in   Overcast
5:48 AM 64.4 °F 64.4 °F 100% 29.77 in 2.5 mi ENE 8.1 mph - 0.01 in   Overcast
5:53 AM 64.0 °F 64.0 °F 100% 29.75 in 2.5 mi ENE 8.1 mph - 0.01 in Rain Light Rain
6:05 AM 64.0 °F 64.0 °F 100% 29.78 in 3.0 mi East 6.9 mph - 0.00 in   Overcast
6:28 AM 64.0 °F 63.0 °F 96% 29.79 in 2.5 mi East 5.8 mph - 0.01 in Rain Light Rain
6:36 AM 64.0 °F 63.0 °F 96% 29.78 in 2.5 mi East 8.1 mph - 0.01 in Rain Light Rain
6:45 AM 64.0 °F 63.0 °F 96% 29.78 in 4.0 mi East 5.8 mph - 0.01 in   Overcast
6:53 AM 64.0 °F 63.0 °F 96% 29.76 in 5.0 mi ESE 5.8 mph - 0.01 in   Overcast
7:53 AM 64.0 °F 63.0 °F 96% 29.73 in 10.0 mi ESE 8.1 mph - 0.01 in   Overcast
8:48 AM 64.0 °F 64.0 °F 100% 29.74 in 2.0 mi SE 8.1 mph - 0.02 in Rain Light Rain
8:56 AM 64.9 °F 64.0 °F 97% 29.76 in 1.2 mi SE 9.2 mph - 0.01 in Rain Rain
9:10 AM 64.9 °F 64.0 °F 97% 29.75 in 2.5 mi SE 8.1 mph - 0.03 in Rain Light Rain
9:18 AM 64.9 °F 64.0 °F 97% 29.74 in 3.0 mi ESE 9.2 mph - 0.04 in Rain Light Rain
10:27 AM 66.0 °F 64.9 °F 96% 29.71 in 9.0 mi SE 6.9 mph - 0.00 in   Overcast
10:53 AM 66.9 °F 66.0 °F 97% 29.69 in 9.0 mi SSE 6.9 mph - 0.00 in   Overcast
11:53 AM 71.1 °F 66.9 °F 87% 29.68 in 10.0 mi SSE 11.5 mph 16.1 mph N/A   Overcast
12:02 PM 71.1 °F 66.9 °F 87% 29.70 in 10.0 mi SSE 11.5 mph - N/A   Mostly Cloudy
1:53 PM 73.0 °F 66.9 °F 81% 29.66 in 10.0 mi Variable 4.6 mph - 0.00 in   Mostly Cloudy
2:53 PM 75.0 °F 66.9 °F 76% 29.63 in 10.0 mi South 8.1 mph - N/A   Mostly Cloudy
3:08 PM 71.1 °F 68.0 °F 90% 29.66 in 5.0 mi South 4.6 mph - 0.02 in Rain Light Rain
3:20 PM 75.0 °F 70.0 °F 84% 29.66 in 10.0 mi SE 6.9 mph - 0.02 in Thunderstorm Thunderstorm
3:35 PM 75.9 °F 69.1 °F 79% 29.65 in 10.0 mi SE 8.1 mph - 0.02 in   Scattered Clouds
3:53 PM 75.9 °F 64.0 °F 67% 29.62 in 10.0 mi SW 11.5 mph - 0.02 in   Partly Cloudy
4:53 PM 78.1 °F 63.0 °F 60% 29.61 in 10.0 mi WSW 9.2 mph - N/A   Scattered Clouds
5:53 PM 77.0 °F 60.1 °F 56% 29.62 in 10.0 mi WSW 8.1 mph 16.1 mph N/A   Scattered Clouds
6:53 PM 75.0 °F 57.9 °F 55% 29.63 in 10.0 mi WSW 5.8 mph - N/A   Clear
7:53 PM 71.1 °F 59.0 °F 66% 29.65 in 10.0 mi Calm Calm - N/A   Clear
8:53 PM 66.0 °F 61.0 °F 84% 29.65 in 10.0 mi Calm Calm - N/A   Overcast
9:53 PM 64.9 °F 61.0 °F 87% 29.66 in 10.0 mi Calm Calm - N/A   Overcast
10:53 PM 63.0 °F 61.0 °F 93% 29.66 in 10.0 mi Calm Calm - N/A   Overcast
11:53 PM 62.1 °F 61.0 °F 96% 29.66 in 10.0 mi Calm Calm - N/A   Overcast